Overview Statistics Trail Chart Weather Telemetry Raw packets
 

This is the latest recevied weather packets stored in our database for station/object KM5VY. If no packets are shown the sender has not sent any weather packets the latest 10 day(s).

<< 14 15 16 17 18 19 20 >>
Time Temp. Humidity Pressure Rain* Wind** Luminosity Snow
1788473652 29.44° C 32% 1021.7 hPa 0 mm - - -
1788473051 29.44° C 32% 1021.7 hPa 0 mm - - -
1788472450 30° C 31% 1022 hPa 0 mm - - -
1788471849 30° C 32% 1022 hPa 0 mm - - -
1788471248 30° C 32% 1022 hPa 0 mm - - -
1788470647 29.44° C 32% 1022 hPa 0 mm - - -
1788470046 28.89° C 32% 1022 hPa 0 mm - - -
1788469445 28.89° C 32% 1022.3 hPa 0 mm - - -
1788468844 29.44° C 32% 1022.3 hPa 0 mm - - -
1788468243 30° C 32% 1022.7 hPa 0 mm - - -
1788467642 30.56° C 31% 1022.3 hPa 0 mm - - -
1788467041 31.11° C 31% 1022.7 hPa 0 mm - - -
1788466440 31.11° C 31% 1022.7 hPa 0 mm - - -
1788465839 30.56° C 30% 1022.7 hPa 0 mm - - -
1788465238 30° C 31% 1023 hPa 0 mm - - -
1788464637 30.56° C 30% 1023 hPa 0 mm - - -
1788464036 30.56° C 32% 1023.4 hPa 0 mm - - -
1788463435 30° C 32% 1023.4 hPa 0 mm - - -
1788462834 30° C 32% 1023.4 hPa 0 mm - - -
1788462233 31.11° C 31% 1023.7 hPa 0 mm - - -
1788461632 31.67° C 31% 1023.7 hPa 0 mm - - -
1788461031 31.11° C 31% 1024 hPa 0 mm - - -
1788460430 31.11° C 31% 1024.4 hPa 0 mm - - -
1788459829 30.56° C 31% 1024.7 hPa 0 mm - - -
1788459228 30.56° C 31% 1024.7 hPa 0 mm - - -

* Rain latest hour (hover to see other rain measurements)
** Current wind speed in m/s (hover to see current wind gust speed)